Regional Weather Roundup
Issued by NWS

Home | Current Version | Previous Version | Text Only | Print | Product List | Glossary Off
Versions: 1 2 3 4 5 6 7 8 9 10 11 12 13 14 15 16 17 18 19 20 21 22 23 24 25 26 27 28 29 30 31 32 33 34 35 36 37 38 39 40 41 42 43 44 45 46 47 48 49 50

000
ASUS43 KMKX 260700
RWRWI

WISCONSIN REGIONAL WEATHER ROUNDUP
NATIONAL WEATHER SERVICE MILWAUKEE/SULLIVAN WI
100 AM CST WED NOV 26 2014

NOTE: "FAIR" INDICATES FEW OR NO CLOUDS BELOW 12,000 FEET WITH NO
SIGNIFICANT WEATHER AND/OR OBSTRUCTIONS TO VISIBILITY.

WIZ001-002-006>008-014>016-023>028-260800-
NORTHWEST WISCONSIN

CITY           SKY/WX    TMP DP  RH WIND       PRES   REMARKS
SUPERIOR ARPT  CLOUDY    20  14  79 S3        30.11S
ASHLAND        CLOUDY    15  13  91 CALM      30.12R
HAYWARD        CLOUDY    20  15  81 CALM      30.07S
SIREN          CLOUDY    21  17  84 E3        30.07F
CUMBERLAND     CLOUDY    21  16  79 SE3       30.06R
RICE LAKE      CLOUDY    22  17  79 E3        30.08S
CHETEK         CLOUDY    22  17  81 SE3       30.07F
LADYSMITH      CLOUDY    21  17  84 E3        30.10R
EAU CLAIRE     NOT AVBL
MENOMONIE      CLOUDY    24  18  78 E5        30.08S WCI  18
NEW RICHMOND   CLOUDY    24  17  74 E6        30.05F WCI  17
OSCEOLA        CLOUDY    25  19  77 E7        30.08S WCI  17
$$

WIZ003>005-009-010-017-018-260800-
NORTH CENTRAL WISCONSIN

CITY           SKY/WX    TMP DP  RH WIND       PRES   REMARKS
MANITOWISH WTR CLOUDY     6   3  90 CALM      30.05F
ARBOR VITAE    CLOUDY    11   9  89 CALM      30.06S
WOODRUFF       CLOUDY    11   9  89 CALM      30.06S
RHINELANDER    CLOUDY     8   6  92 E5        30.07F WCI   0
EAGLE RIVER    MOCLDY     4  -1  81 CALM      30.07F
LAND O LAKES   CLEAR     -7 -12  80 CALM      30.08S
PHILLIPS       CLOUDY    15  13  90 CALM      30.07R
TOMAHAWK       CLOUDY    13  11  90 CALM      30.08F
MEDFORD        CLOUDY    19  15  85 CALM      30.06S
MERRILL        CLOUDY    11   9  91 CALM      30.10S
$$

WIZ029-030-035-036-043>047-260800-
CENTRAL WISCONSIN

CITY           SKY/WX    TMP DP  RH WIND       PRES   REMARKS
WAUSAU         CLOUDY    13  11  92 E5        30.10S WCI   5
MOSINEE        CLOUDY    14  14 100 E3        30.10F FOG
MARSHFIELD     CLOUDY    21  15  78 E5        30.08F WCI  15
STEVENS POINT  CLOUDY    11   9  91 CALM      30.12F
WAUPACA        CLOUDY    10   6  86 CALM      30.16S
WAUTOMA        NOT AVBL
WISC RAPIDS    CLOUDY    18  13  80 SE6       30.12F WCI  10
CAMP DOUGLAS   NOT AVBL
$$

WIZ011>013-019>022-031-037>040-048>050-260800-
NORTHEAST WISCONSIN

CITY           SKY/WX    TMP DP  RH WIND       PRES   REMARKS
ANTIGO         CLOUDY     0  -2  88 CALM      30.09F
SHAWANO        CLEAR     10   6  87 CALM      30.17S
OCONTO         CLEAR     10   9  95 CALM      30.19R
STURGEON BAY   CLOUDY    21  14  73 S3        30.18S
GREEN BAY      CLEAR     11   8  88 CALM      30.18S
MANITOWOC      NOT AVBL
APPLETON       CLEAR     14  12  92 S5        30.16S WCI   6
CLINTONVILLE   CLOUDY     5   3  92 CALM      30.16S FOG
OSHKOSH        CLEAR     12  10  92 S3        30.16S FOG
$$

WIZ032>034-041-042-053>061-260800-
SOUTHWEST WISCONSIN

CITY           SKY/WX    TMP DP  RH WIND       PRES   REMARKS
LA CROSSE      MOCLDY    19  13  77 SE6       30.11F WCI  11
SPARTA         CLOUDY    16  14  93 CALM      30.12S
VIROQUA        MOCLDY    14  12  92 SE7       30.07F WCI   4
BOSCOBEL       FAIR       8   4  83 CALM      30.13F
PRAIRIE DU CHI FAIR      15  12  86 E5        30.12S WCI   8
PLATTEVILLE    CLEAR     13  12  93 CALM      30.11F
$$

WIZ056-057-062-063-064-067-068-260800-
SOUTH CENTRAL WISCONSIN

CITY           SKY/WX    TMP DP  RH WIND       PRES   REMARKS
REEDSBURG      CLEAR      8   6  92 CALM      30.12S
BARABOO/DELLS  CLEAR      8   6  90 CALM      30.12S
LONE ROCK      NOT AVBL
MINERAL POINT  PTCLDY    16  12  86 SE5       30.09F WCI   9
MADISON        CLEAR     14  11  87 SE7       30.13F WCI   4
MIDDLETON      CLEAR      6   2  84 CALM      30.13F
WATERTOWN      CLEAR      9   7  95 CALM      30.16F
MONROE         CLEAR     14  12  92 SE8       30.11F WCI   3
JANESVILLE     CLEAR     10   7  85 CALM      30.17S FOG
$$

WIZ051-052-058>065-066-070>072-260800-
SOUTHEAST WISCONSIN

CITY           SKY/WX    TMP DP  RH WIND       PRES   REMARKS
MILWAUKEE      MOCLDY    20  14  77 SW5       30.18S WCI  13
WAUKESHA       CLEAR     12  10  92 W3        30.18S FOG
MILWAUKEE/TIMM CLOUDY    21  14  73 CALM      30.19S
RACINE         CLEAR     17  13  84 W5        30.20S WCI  10
BURLINGTON     CLEAR      7   6  94 CALM      30.17S FOG
KENOSHA        CLEAR     12   9  87 W3        30.17F FOG
FOND DU LAC    CLEAR     12   8  84 S3        30.16S
SHEBOYGAN      CLOUDY    20  15  81 CALM      30.18S
WEST BEND      CLOUDY    19  16  86 SW3       30.17S
JUNEAU         CLEAR     13  11  92 SE6       30.16F WCI   4
$$

LSZ147-162-260800-
LAKE SUPERIOR

STATION/POSITION TIME  TEMP    WIND        PRES    WAVE
                       AIR SEA DIR/SP/G            HT/PER
                 (UTC) (F)     (DEG/KT/KT) (MB)    (FT/S)
DEVILS ISLAND    0600   24     210/ 11/ 12 1020.3R
PORT WING        0600   17     140/  3/  4 1019.6R
SAXON HARBOR     0600   13     190/  5/  7 1019.6R
$$

LMZ867-665-643>646-260800-
LAKE MICHIGAN

STATION/POSITION TIME  TEMP    WIND        PRES    WAVE
                       AIR SEA DIR/SP/G            HT/PER
                 (UTC) (F)     (DEG/KT/KT) (MB)    (FT/S)
CHAMBERS ISLAND  0600   22     230/  6/ 10 1021.7R
N MID LAKE BUOY  0550   29 42  250/  6/ 10 1021.9R   1
NORTHPORT PIER   0604   24     210/  3/  8 1021.7R
SISTER BAY       0513          230/  2/  5   N/A
KEWAUNEE LAKESHO 0600   21     260/  1/  4 1021.3R
SHEBOYGAN LAKESH 0600   21 36  230/  6/  8 1023.4R
PORT WASHINGTON  0600   22     270/  5/  8 1023.0R
MILWAUKEE LAKESH 0600   21     220/  6/  8   N/A
S MID LAKE BUOY  0550   28 42  200/ 12/ 17 1022.7F   2/ 6
KENOSHA   LAKESH 0600   19     240/  6/  9 1022.0F
$$

TC  - TEMPERATURE IN CELSIUS
VSB - VISIBILITY IN STATUTE MILES
WCI - WIND CHILL INDEX
HX  - HEAT INDEX




USA.gov is the U.S. government's official web portal to all federal, state and local government web resources and services.